Location: Dana
(41.8364°N, 106.7042°W)
Time: 06:38:53
(UTC+00:00)

ACS3 Solar Sail - Visible Passes

Search period start: 14 April 2026 00:00
Search period end: 24 April 2026 00:00
Orbit: 872 x 977 km, 97.2° (Epoch: 13 April)

Date Brightness Start Highest point End Pass type
(mag) Time Alt. Az. Time Alt. Az. Time Alt. Az.
14 Apr 4.1 06:53:19 10° NE 06:54:34 13° ENE 06:54:34 13° ENE visible
14 Apr 2.4 08:33:43 10° N 08:38:08 51° N 08:38:08 51° N visible
14 Apr 3.7 10:18:35 10° NNW 10:21:13 13° WNW 10:21:42 13° WNW visible
15 Apr 3.9 07:02:26 10° NE 07:04:32 16° ENE 07:04:32 16° ENE visible
15 Apr 2.3 08:43:29 10° N 08:48:06 51° NNW 08:48:06 51° NNW visible
15 Apr 3.8 10:29:33 10° NW 10:30:45 11° WNW 10:31:40 10° WNW visible
16 Apr 3.7 07:11:44 10° NE 07:14:30 20° ENE 07:14:30 20° ENE visible
16 Apr 2.3 08:53:18 10° N 08:58:04 48° NW 08:58:04 48° NW visible
17 Apr 3.5 07:21:10 10° NE 07:24:28 24° ENE 07:24:28 24° ENE visible
17 Apr 2.5 09:03:09 10° N 09:08:02 43° NW 09:08:02 43° NW visible
18 Apr 3.2 07:30:41 10° NNE 07:34:26 29° ENE 07:34:26 29° ENE visible
18 Apr 2.6 09:13:02 10° N 09:18:00 37° WNW 09:18:00 37° WNW visible
19 Apr 3.0 07:40:16 10° NNE 07:44:24 36° ENE 07:44:24 36° ENE visible
19 Apr 2.8 09:22:59 10° N 09:27:58 31° WNW 09:27:58 31° WNW visible
20 Apr 2.7 07:49:54 10° NNE 07:54:23 43° ENE 07:54:23 43° ENE visible
20 Apr 3.0 09:32:58 10° NNW 09:37:53 26° WNW 09:37:57 26° WNW visible
21 Apr 2.4 07:59:34 10° NNE 08:04:22 51° NE 08:04:22 51° NE visible
21 Apr 3.2 09:43:01 10° NNW 09:47:31 22° WNW 09:47:56 22° WNW visible
22 Apr 2.1 08:09:18 10° NNE 08:14:21 61° NE 08:14:21 61° NE visible
22 Apr 3.4 09:53:10 10° NNW 09:57:09 18° WNW 09:57:55 18° WNW visible
23 Apr 4.0 06:39:12 10° ENE 06:40:46 13° ENE 06:40:46 13° ENE visible
23 Apr 2.0 08:19:04 10° NNE 08:24:21 68° N 08:24:21 68° N visible
23 Apr 3.6 10:03:27 10° NNW 10:06:46 15° WNW 10:07:55 15° WNW visible
